עמוד ראשי
METAR-TAF:

METAR-TAF

שדות תעופה :

Loja, אקוודור

קו רוחב: 03-59-45S, קו אורך: 079-22-19W, גובה: 1236מטר

תצפית מזג אוויר נוכחית

הדו"ח נערך לפני 1 שעות ו 13דקות, בשעה 23:00 UTC
רוח 18קשר מכיוון מזרח/צפון-מזרח
טמפרטורת 27 צלסיוס
לחות 48%
לחץ 1014 hPa
ראות 10 קילומטר או יותר
עננים בינוניים בגובה 4000רגל

METAR: SECA 202300Z 06018KT 9999 BKN040 27/15 Q1014 RMK A2996

זמן: 19:13 (00:13 UTC)


TAF: חסר

תצפיות ותחזיות מזג אוויר לגבי יותר מ- 4,000 שדות תעופה ברחבי העולם. דוחות METAR ו- TAF.

התחנות הזמינות מסומנות בנקודות צהובות ואדומות על גבי המפה.

העבר את העכבר לנקודה הצבעונית על מנת לראות את שם התחנה.

לאחר מכן, לחץ כדי לראות את תוכן ואת תחזיות מזג האוויר.

כדי לשנות את המפה: לחץ על הכפתורים הירוקים עם הפלוס השחור כדי להתקרב; על הכפתור הירוק עם המקף כדי להתרחק; או בחיצים הירוקים למפות סמוכות.


METAR-TAF: